Fayetteville, Georgia, United States (30214)
Lat: 33.45N, Lon: 84.45W
Wx Zone: GAZ054
Local Info
Past Weather Observations for Today

NOTE: This archive is for the closest National Weather Service station to Fayetteville. Information may differ from the station used for current weather conditions.

Click here for Long-term Archive

Time Weather Temperature Dewpoint Humidity Pressure Winds Precip Visibility
20:53
Clear
Fog And Mist
64°F / 18°C 63°F / 17°C 94% 30.04 in
(1017 mb)
Calm - 6SM
19:53
Clear
66°F / 19°C 63°F / 17°C 88% 30.01 in
(1016 mb)
Calm - 7SM
18:53
Clear
70°F / 21°C 64°F / 18°C 83% 30.01 in
(1016 mb)
Calm - 9SM
17:53
Clear
73°F / 23°C 66°F / 19°C 78% 29.98 in
(1015 mb)
Calm - 10SM
16:53
Clear
82°F / 28°C 57°F / 14°C 42% 29.98 in
(1015 mb)
SE 4.6 mph
(SE 7 kph)
- 10SM
15:53
Clear
84°F / 29°C 57°F / 14°C 40% 29.98 in
(1015 mb)
SE 6.9 mph
(SE 11 kph)
- 10SM
14:53
Partly Cloudy
84°F / 29°C 57°F / 14°C 40% 29.98 in
(1015 mb)
Variable 3.5 mph
(Variable 6 kph)
- 10SM
13:53
Partly Cloudy
84°F / 29°C 59°F / 15°C 43% 30.01 in
(1016 mb)
E 8.1 mph
(E 13 kph)
- 10SM
12:53
Mostly Cloudy
84°F / 29°C 61°F / 16°C 45% 30.01 in
(1016 mb)
Variable 4.6 mph
(Variable 7 kph)
- 10SM
11:53
Partly Cloudy
79°F / 26°C 64°F / 18°C 61% 30.04 in
(1017 mb)
Calm - 10SM
10:53
Clear
79°F / 26°C 64°F / 18°C 61% 30.04 in
(1017 mb)
Calm - 10SM
09:53
Clear
75°F / 24°C 66°F / 19°C 74% 30.04 in
(1017 mb)
Calm - 10SM
08:53
Clear
70°F / 21°C 64°F / 18°C 83% 30.04 in
(1017 mb)
Calm - 10SM
07:53
Clear
63°F / 17°C 63°F / 17°C 100% 30.04 in
(1017 mb)
Calm - 7SM
07:31
Partly Cloudy
Fog And Mist
61°F / 16°C 59°F / 15°C 94% 30.01 in
(1016 mb)
Calm - 6SM
07:05
Overcast
Fog And Mist
57°F / 14°C 57°F / 14°C 100% 30.01 in
(1016 mb)
Calm - 5SM
06:58
Overcast
Fog And Mist
57°F / 14°C 57°F / 14°C 100% 30.01 in
(1016 mb)
Calm - 2 1/2SM
06:53
Obscured
Fog
57°F / 14°C 57°F / 14°C 100% 30.01 in
(1016 mb)
Calm - 1/2SM
06:13
Obscured
Fog And Mist
57°F / 14°C 57°F / 14°C 100% 29.98 in
(1015 mb)
Calm - 3/4SM
06:04
Overcast
Fog And Mist
57°F / 14°C 57°F / 14°C 100% 29.98 in
(1015 mb)
Calm - 2SM
05:53
Overcast
Fog And Mist
57°F / 14°C 57°F / 14°C 100% 29.98 in
(1015 mb)
Calm - 6SM
05:24
Mostly Cloudy
59°F / 15°C 57°F / 14°C 94% 29.98 in
(1015 mb)
Calm - 8SM
05:00
Partly Cloudy
59°F / 15°C 57°F / 14°C 94% 29.98 in
(1015 mb)
Calm - 8SM
04:53
Mostly Cloudy
Fog And Mist
59°F / 15°C 57°F / 14°C 94% 29.98 in
(1015 mb)
Calm - 4SM
04:48
Mostly Cloudy
Fog And Mist
59°F / 15°C 57°F / 14°C 94% 29.98 in
(1015 mb)
Calm - 1 3/4SM
04:39
Mostly Cloudy
Fog And Mist
59°F / 15°C 59°F / 15°C 100% 29.98 in
(1015 mb)
Calm - 2SM
04:29
Obscured
Fog
59°F / 15°C 57°F / 14°C 94% 29.98 in
(1015 mb)
Calm - 1/2SM
04:15
Overcast
Fog And Mist
59°F / 15°C 57°F / 14°C 94% 29.98 in
(1015 mb)
Calm - 1 3/4SM
03:53
Overcast
61°F / 16°C 59°F / 15°C 94% 29.98 in
(1015 mb)
Calm - 9SM
03:22
Mostly Cloudy
61°F / 16°C 59°F / 15°C 94% 29.95 in
(1014 mb)
Calm - 7SM
02:53
Partly Cloudy
61°F / 16°C 59°F / 15°C 94% 29.95 in
(1014 mb)
Calm - 8SM
01:53
Partly Cloudy
61°F / 16°C 61°F / 16°C 100% 29.95 in
(1014 mb)
Calm - 8SM
01:46
Partly Cloudy
61°F / 16°C 61°F / 16°C 100% 29.95 in
(1014 mb)
Calm - 8SM
01:39
Mostly Cloudy
Fog And Mist
61°F / 16°C 61°F / 16°C 100% 29.95 in
(1014 mb)
Calm - 3SM
01:22
Mostly Cloudy
Fog And Mist
63°F / 17°C 61°F / 16°C 94% 29.95 in
(1014 mb)
Calm - 1 3/4SM
01:14
Mostly Cloudy
61°F / 16°C 61°F / 16°C 100% 29.95 in
(1014 mb)
Calm - 7SM
01:05
Partly Cloudy
61°F / 16°C 61°F / 16°C 100% 29.95 in
(1014 mb)
Calm - 10SM
00:53
Clear
63°F / 17°C 61°F / 16°C 94% 29.95 in
(1014 mb)
Calm - 10SM
Time Weather Temperature Dewpoint Humidity Pressure Winds Precip Visibility


Weather for websites

WeatherForYou.com, LLC is not responsible for any damages or problems caused by this service. Current weather conditions are obtained from the closest station including government and personal stations which may have varying degrees of accuracy. Weather forecasts are derived from the NOAA NDFD. Like all things, this site belongs to Jesus Christ... He just trusts me to maintain it. If you have any questions or comments email webmaster@weatherforyou.com

Copyright © 2014, WeatherForYou.com LLC. All rights reserved.